SHT15C EGJB-EGLL

Flight info

Callsign SHT15C
Flight time 0h 24m
Altitude 19000
Route ORIST1F ORIST L982 ROXOG ROXOG1H
Aircraft A320/M-SDE3FGIJ1KRWXY/SB1

Departure

Time 2026-04-30 21:18
Airport Guernsey Airport (EGJB)

Arrival

Time 2026-04-30 21:42
Airport London Heathrow Airport (EGLL)
Time Latitude Longitude Altitude Speed Heading
2026-04-30 20:57 49.43252 -2.59621 341 ft 0 kts 178°
2026-04-30 21:07 49.43253 -2.59621 335 ft 2 kts 178°
2026-04-30 21:07 49.43270 -2.59622 335 ft 2 kts 180°
2026-04-30 21:08 49.43286 -2.59623 338 ft 2 kts 179°
2026-04-30 21:08 49.43303 -2.59623 338 ft 2 kts 180°
2026-04-30 21:08 49.43319 -2.59622 335 ft 2 kts 182°
2026-04-30 21:08 49.43335 -2.59621 337 ft 2 kts 188°
2026-04-30 21:09 49.43352 -2.59616 336 ft 2 kts 211°
2026-04-30 21:09 49.43361 -2.59599 337 ft 1 kts 270°
2026-04-30 21:09 49.43361 -2.59595 337 ft 0 kts 268°
2026-04-30 21:12 49.43361 -2.59596 337 ft 1 kts 268°
2026-04-30 21:13 49.43361 -2.59628 337 ft 5 kts 270°
2026-04-30 21:13 49.43360 -2.59694 338 ft 8 kts 266°
2026-04-30 21:13 49.43345 -2.59802 336 ft 12 kts 267°
2026-04-30 21:13 49.43342 -2.59950 335 ft 16 kts 268°
2026-04-30 21:14 49.43337 -2.60136 331 ft 19 kts 268°
2026-04-30 21:14 49.43334 -2.60270 330 ft 13 kts 267°
2026-04-30 21:14 49.43329 -2.60432 326 ft 17 kts 267°
2026-04-30 21:14 49.43326 -2.60591 324 ft 16 kts 274°
2026-04-30 21:15 49.43343 -2.60746 322 ft 14 kts 280°
2026-04-30 21:15 49.43360 -2.60892 320 ft 14 kts 280°
2026-04-30 21:15 49.43362 -2.61023 318 ft 10 kts 268°
2026-04-30 21:15 49.43360 -2.61156 315 ft 10 kts 269°
2026-04-30 21:16 49.43360 -2.61224 314 ft 6 kts 272°
2026-04-30 21:16 49.43383 -2.61295 313 ft 9 kts 310°
2026-04-30 21:16 49.43406 -2.61332 312 ft 6 kts 314°
2026-04-30 21:16 49.43448 -2.61341 313 ft 7 kts 28°
2026-04-30 21:17 49.43467 -2.61286 314 ft 5 kts 84°
2026-04-30 21:17 49.43467 -2.61272 314 ft 4 kts 86°
2026-04-30 21:17 49.43479 -2.60867 322 ft 81 kts 86°
2026-04-30 21:17 49.43514 -2.59609 347 ft 149 kts 90°
2026-04-30 21:18 49.43559 -2.57944 1016 ft 153 kts 90°
2026-04-30 21:18 49.43603 -2.56324 1798 ft 149 kts 92°
2026-04-30 21:18 49.43644 -2.54677 2117 ft 164 kts 92°
2026-04-30 21:18 49.43686 -2.52800 2334 ft 188 kts 91°
2026-04-30 21:19 49.43816 -2.50680 2575 ft 214 kts 74°
2026-04-30 21:19 49.44773 -2.48843 3119 ft 232 kts 31°
2026-04-30 21:19 49.46311 -2.48031 3898 ft 236 kts 16°
2026-04-30 21:19 49.47914 -2.47421 4703 ft 239 kts 16°
2026-04-30 21:20 49.49605 -2.46797 5139 ft 262 kts 16°
2026-04-30 21:20 49.51456 -2.46110 5616 ft 281 kts 15°
2026-04-30 21:20 49.53380 -2.45399 6423 ft 288 kts 15°
2026-04-30 21:20 49.55342 -2.44667 7248 ft 292 kts 15°
2026-04-30 21:21 49.57328 -2.43919 8063 ft 296 kts 16°
2026-04-30 21:21 49.59340 -2.43156 8876 ft 300 kts 16°
2026-04-30 21:21 49.63442 -2.41584 10457 ft 308 kts 17°
2026-04-30 21:22 49.65532 -2.40782 11175 ft 312 kts 17°
2026-04-30 21:22 49.71181 -2.36938 11934 ft 354 kts 44°
2026-04-30 21:23 49.72879 -2.34172 12554 ft 356 kts 53°
2026-04-30 21:23 49.74489 -2.31240 13231 ft 360 kts 53°
2026-04-30 21:23 49.77769 -2.25282 14362 ft 372 kts 53°
2026-04-30 21:24 49.79480 -2.22163 14636 ft 385 kts 53°
2026-04-30 21:24 49.81227 -2.18978 15107 ft 390 kts 53°
2026-04-30 21:24 49.83016 -2.15713 15668 ft 394 kts 53°
2026-04-30 21:24 49.84792 -2.12472 16220 ft 397 kts 53°
2026-04-30 21:25 49.88391 -2.05894 17340 ft 403 kts 53°
2026-04-30 21:25 49.90208 -2.02560 17899 ft 406 kts 53°
2026-04-30 21:25 49.92041 -1.99216 18466 ft 410 kts 51°
2026-04-30 21:26 49.96544 -1.93544 19085 ft 419 kts 40°
2026-04-30 21:26 49.99031 -1.91048 19131 ft 437 kts 31°
2026-04-30 21:27 50.04567 -1.86468 19129 ft 459 kts 32°
2026-04-30 21:27 50.07357 -1.84035 19130 ft 460 kts 33°
2026-04-30 21:27 50.10128 -1.81550 19130 ft 460 kts 33°
2026-04-30 21:28 50.15660 -1.76502 19128 ft 460 kts 33°
2026-04-30 21:28 50.22465 -1.70325 19128 ft 461 kts 33°
2026-04-30 21:28 50.44651 -1.50324 19143 ft 460 kts 33°
2026-04-30 21:29 50.55753 -1.40221 19119 ft 459 kts 33°
2026-04-30 21:29 50.77360 -1.20378 19008 ft 451 kts 33°
2026-04-30 21:30 50.82682 -1.15384 17825 ft 441 kts 34°
2026-04-30 21:31 50.90434 -1.08027 15761 ft 426 kts 34°
2026-04-30 21:31 50.95513 -1.03205 14486 ft 419 kts 34°
2026-04-30 21:32 51.00366 -0.98272 13180 ft 409 kts 42°
2026-04-30 21:32 51.02371 -0.95167 12814 ft 393 kts 51°
2026-04-30 21:32 51.04141 -0.91996 12658 ft 376 kts 51°
2026-04-30 21:32 51.05972 -0.89043 12044 ft 377 kts 40°
2026-04-30 21:33 51.08283 -0.87102 11476 ft 378 kts 19°
2026-04-30 21:33 51.13464 -0.86001 10340 ft 374 kts
2026-04-30 21:33 51.16039 -0.85618 9784 ft 370 kts
2026-04-30 21:34 51.18589 -0.85229 9199 ft 366 kts
2026-04-30 21:34 51.23619 -0.84472 8094 ft 360 kts
2026-04-30 21:34 51.26095 -0.84093 7526 ft 354 kts
2026-04-30 21:35 51.28528 -0.83717 6603 ft 349 kts
2026-04-30 21:35 51.30935 -0.83340 5638 ft 345 kts
2026-04-30 21:35 51.33310 -0.82975 4710 ft 342 kts
2026-04-30 21:35 51.35650 -0.82640 4107 ft 330 kts
2026-04-30 21:36 51.37884 -0.82353 3759 ft 312 kts
2026-04-30 21:36 51.39975 -0.82108 3596 ft 290 kts
2026-04-30 21:37 51.45409 -0.81558 3437 ft 234 kts
2026-04-30 21:37 51.46955 -0.81080 3377 ft 215 kts 34°
2026-04-30 21:37 51.47862 -0.79461 3344 ft 187 kts 82°
2026-04-30 21:37 51.47772 -0.77520 3325 ft 173 kts 114°
2026-04-30 21:38 51.47582 -0.75600 3286 ft 179 kts 95°
2026-04-30 21:38 51.47614 -0.73621 3134 ft 173 kts 96°
2026-04-30 21:38 51.47630 -0.71724 2936 ft 167 kts 96°
2026-04-30 21:38 51.47642 -0.69883 2730 ft 163 kts 97°
2026-04-30 21:39 51.47653 -0.68108 2512 ft 155 kts 97°
2026-04-30 21:39 51.47663 -0.66406 2309 ft 150 kts 97°
2026-04-30 21:39 51.47672 -0.64751 2133 ft 148 kts 97°
2026-04-30 21:39 51.47680 -0.63112 1926 ft 147 kts 97°
2026-04-30 21:40 51.47688 -0.61462 1721 ft 149 kts 96°
2026-04-30 21:40 51.47696 -0.59808 1510 ft 148 kts 95°
2026-04-30 21:40 51.47705 -0.58151 1322 ft 148 kts 94°
2026-04-30 21:40 51.47713 -0.56537 1118 ft 142 kts 93°
2026-04-30 21:41 51.47720 -0.54972 926 ft 138 kts 91°
2026-04-30 21:41 51.47727 -0.53435 732 ft 138 kts 90°
2026-04-30 21:41 51.47734 -0.51907 553 ft 137 kts 89°
2026-04-30 21:41 51.47740 -0.50376 349 ft 136 kts 89°
2026-04-30 21:42 51.47745 -0.48855 187 ft 137 kts 88°
2026-04-30 21:42 51.47751 -0.47340 88 ft 129 kts 89°
2026-04-30 21:42 51.47762 -0.46142 87 ft 83 kts 90°
2026-04-30 21:42 51.47761 -0.45574 85 ft 16 kts 89°
2026-04-30 21:43 51.47717 -0.45473 86 ft 12 kts 162°
2026-04-30 21:43 51.47646 -0.45469 87 ft 10 kts 179°
2026-04-30 21:43 51.47596 -0.45539 90 ft 11 kts 260°
2026-04-30 21:43 51.47596 -0.45679 87 ft 14 kts 270°
2026-04-30 21:44 51.47597 -0.45844 87 ft 16 kts 270°
2026-04-30 21:44 51.47593 -0.46035 87 ft 18 kts 270°
2026-04-30 21:44 51.47593 -0.46208 87 ft 17 kts 270°
2026-04-30 21:44 51.47593 -0.46406 87 ft 19 kts 269°
2026-04-30 21:45 51.47592 -0.46615 87 ft 19 kts 270°
2026-04-30 21:45 51.47589 -0.46816 87 ft 18 kts 263°
2026-04-30 21:45 51.47583 -0.46996 87 ft 15 kts 270°
2026-04-30 21:45 51.47584 -0.47171 89 ft 17 kts 270°
2026-04-30 21:46 51.47581 -0.47372 90 ft 19 kts 268°
2026-04-30 21:46 51.47580 -0.47574 88 ft 17 kts 270°
2026-04-30 21:46 51.47580 -0.47704 89 ft 6 kts 270°
2026-04-30 21:46 51.47579 -0.47779 88 ft 7 kts 270°
2026-04-30 21:47 51.47579 -0.47858 90 ft 7 kts 270°
2026-04-30 21:47 51.47580 -0.47941 90 ft 8 kts 270°
2026-04-30 21:47 51.47578 -0.48039 88 ft 10 kts 268°
2026-04-30 21:47 51.47577 -0.48156 87 ft 11 kts 270°
2026-04-30 21:48 51.47578 -0.48293 90 ft 13 kts 270°
2026-04-30 21:48 51.47577 -0.48416 87 ft 6 kts 269°
2026-04-30 21:48 51.47556 -0.48479 92 ft 7 kts 205°
2026-04-30 21:48 51.47503 -0.48486 87 ft 9 kts 207°
2026-04-30 21:49 51.47486 -0.48583 88 ft 10 kts 271°
2026-04-30 21:49 51.47486 -0.48708 88 ft 12 kts 270°
2026-04-30 21:49 51.47486 -0.48817 87 ft 7 kts 265°
2026-04-30 21:49 51.47451 -0.48832 87 ft 6 kts 180°
2026-04-30 21:50 51.47417 -0.48831 87 ft 0 kts 179°
2026-04-30 21:50 51.47411 -0.48831 87 ft 2 kts 180°
2026-04-30 21:50 51.47401 -0.48831 87 ft 0 kts 180°